This is the latest recevied weather packets stored in our database for station/object VE3VGJ. If no packets are shown the sender has not sent any weather packets the latest 10 day(s).
| Time | Temp. | Humidity | Pressure | Rain* | Wind** | Luminosity | Snow |
|---|---|---|---|---|---|---|---|
| 1777554246 | 7.78° C | 68% | 1010.3 hPa | 0 mm | - | 205 W/m² | - |
| 1777553943 | 7.78° C | 69% | 1010.4 hPa | 0 mm | - | 249 W/m² | - |
| 1777553639 | 7.78° C | 69% | 1010.6 hPa | 0 mm | - | 234 W/m² | - |
| 1777553336 | 7.78° C | 70% | 1010.2 hPa | 0 mm | - | 254 W/m² | - |
| 1777553032 | 7.78° C | 71% | 1010.4 hPa | 0 mm | - | 201 W/m² | - |
| 1777552727 | 7.22° C | 69% | 1010.4 hPa | 0 mm | - | 203 W/m² | - |
| 1777552424 | 7.22° C | 69% | 1010.5 hPa | 0 mm | - | 210 W/m² | - |
| 1777552120 | 7.22° C | 70% | 1010.5 hPa | 0 mm | - | 181 W/m² | - |
| 1777551818 | 7.22° C | 71% | 1010.3 hPa | 0 mm | - | 201 W/m² | - |
| 1777551515 | 7.22° C | 72% | 1010.5 hPa | 0 mm | - | 187 W/m² | - |
| 1777551211 | 6.67° C | 72% | 1010.5 hPa | 0 mm | - | 148 W/m² | - |
| 1777550908 | 6.67° C | 73% | 1010.2 hPa | 0 mm | - | 144 W/m² | - |
| 1777550605 | 6.67° C | 74% | 1010 hPa | 0 mm | - | 142 W/m² | - |
| 1777550301 | 6.67° C | 74% | 1010.2 hPa | 0 mm | - | 141 W/m² | - |
| 1777549998 | 6.67° C | 75% | 1010.1 hPa | 0 mm | - | 119 W/m² | - |
| 1777549695 | 6.67° C | 75% | 1010.2 hPa | 0 mm | - | 101 W/m² | - |
| 1777549394 | 6.67° C | 75% | 1010.3 hPa | 0 mm | - | 105 W/m² | - |
| 1777549092 | 6.11° C | 75% | 1010 hPa | 0 mm | - | 104 W/m² | - |
| 1777548788 | 6.11° C | 76% | 1010.1 hPa | 0 mm | - | 98 W/m² | - |
| 1777548486 | 6.11° C | 76% | 1010.1 hPa | 0 mm | - | 86 W/m² | - |
| 1777548182 | 6.11° C | 75% | 1010.1 hPa | 0 mm | - | 66 W/m² | - |
| 1777547878 | 6.11° C | 75% | 1010 hPa | 0 mm | - | 51 W/m² | - |
| 1777547574 | 6.11° C | 75% | 1009.8 hPa | 0 mm | - | 45 W/m² | - |
| 1777547272 | 6.11° C | 75% | 1009.6 hPa | 0 mm | - | 41 W/m² | - |
| 1777546969 | 6.11° C | 76% | 1009.7 hPa | 0 mm | - | 35 W/m² | - |
* Rain latest hour (hover to see other rain measurements)
** Current wind speed in m/s (hover to see current wind gust speed)